Погода в Нарын-Ацагате

Россия / Республика Бурятия     52°00′12″N   108°17′32″E
темп.,
°C
ветер,
м/с
пор.,
м/с
влажн.,
%
обл.,
%
осадки,
мм/ч
давл.,
гПа
погр.,
м
23 октября, сб
сб2323:000св11600 0.0 102310
02:00−1св11660 0.0 102310
05:00−2св01690 0.0 102410
08:00−3зсз00690 0.0 102510
11:00+4ююз12440 0.0 1024350
14:00+9юз333525 0.0 1021700
17:00+5з23485 0.0 102261
20:00+1зсз226710 0.0 102529
24 октября, вс
вс2423:00−1з22840 0.0 102515
02:00−1з2289100 0.0 102414
05:00−1зюз1188100 0.0 102412
08:00−1зюз1184100 0.0 102313
11:00+4юз236189 0.0 1021431
14:00+8зюз35478 0.0 1018955
17:00+5з34635 0.0 101988
20:00+1зсз228328 0.0 102123
25 октября, пн
пн2523:000зсз228712 0.0 102115
02:00−1з22885 0.0 102113
05:00−1з228981 0.0 102213
08:00−1зюз118488 0.0 102213
11:00+5з4858100 0.1 1022840
14:00+5з596475 0.7 10221343
17:00+3з378046 0.1 1024390
20:00+1зюз358816 0.1 1025142
26 октября, вт
вт2623:00−1зюз239328 0.0 102662
02:00−2зюз229339 0.0 102621
05:00−3ююз019235 0.0 102410
08:00−3юз119390 0.0 102311
11:00+4юз35645 0.0 1021437
14:00+8зюз484510 0.0 1018829
17:00+5зюз49595 0.0 1019274
20:00+2зюз37741 0.0 1022169
27 октября, ср
ср2723:00+1з23805 0.0 102337
02:00−1з22865 0.0 102419
05:00−2зсз11815 0.0 102410
08:00−2св11815 0.0 102411
11:00+3в1256100 0.0 1022255
14:00+7всв2247100 0.0 1019347
17:00+4ссв22575 0.0 101912
20:00+2ссв11665 0.0 102010